THA8881 VTBS-VVTS

Flight info

Callsign THA8881
Flight time 1h 18m
Altitude 41000
Route GOMES1R GOMES N506 ELMOP R468 SAPEN SAPEN5B
Aircraft A359/H-SDE2E3GHIJ1J3J4J5LM1ORWXY/LB1D1

Departure

Time 2026-05-04 17:22
Airport Suvarnabhumi Airport (VTBS)

Arrival

Time 2026-05-04 18:40
Airport Tan Son Nhat International Airport (VVTS)
Time Latitude Longitude Altitude Speed Heading
2026-05-04 16:57 13.68095 100.74972 19 ft 0 kts 14°
2026-05-04 17:10 13.68088 100.74970 19 ft 2 kts 14°
2026-05-04 17:11 13.68069 100.74965 20 ft 3 kts 14°
2026-05-04 17:11 13.68049 100.74959 20 ft 3 kts 14°
2026-05-04 17:11 13.68016 100.74952 19 ft 3 kts 350°
2026-05-04 17:12 13.68001 100.74958 23 ft 3 kts 297°
2026-05-04 17:12 13.67993 100.74986 22 ft 0 kts 284°
2026-05-04 17:15 13.68020 100.74882 22 ft 18 kts 285°
2026-05-04 17:16 13.68091 100.74603 21 ft 22 kts 284°
2026-05-04 17:16 13.68231 100.74086 22 ft 25 kts 316°
2026-05-04 17:17 13.68379 100.74086 21 ft 22 kts 13°
2026-05-04 17:17 13.68824 100.74103 20 ft 21 kts 13°
2026-05-04 17:18 13.68974 100.74142 20 ft 23 kts 14°
2026-05-04 17:18 13.69313 100.74231 19 ft 27 kts 14°
2026-05-04 17:19 13.69692 100.74330 21 ft 29 kts 14°
2026-05-04 17:19 13.70087 100.74434 22 ft 17 kts 15°
2026-05-04 17:20 13.70325 100.74444 20 ft 18 kts 303°
2026-05-04 17:20 13.70274 100.74296 22 ft 0 kts 197°
2026-05-04 17:21 13.69925 100.74203 19 ft 88 kts 194°
2026-05-04 17:21 13.68207 100.73754 315 ft 168 kts 189°
2026-05-04 17:22 13.67091 100.73493 1171 ft 162 kts 189°
2026-05-04 17:22 13.65983 100.73388 1883 ft 161 kts 162°
2026-05-04 17:23 13.65280 100.76528 3539 ft 169 kts 102°
2026-05-04 17:23 13.64903 100.77692 3822 ft 179 kts 114°
2026-05-04 17:23 13.63778 100.80081 4604 ft 190 kts 117°
2026-05-04 17:24 13.63226 100.81325 5055 ft 193 kts 108°
2026-05-04 17:24 13.63016 100.85754 6037 ft 224 kts 90°
2026-05-04 17:25 13.63018 100.87397 6343 ft 237 kts 90°
2026-05-04 17:25 13.63013 100.90975 7050 ft 262 kts 91°
2026-05-04 17:26 13.62310 100.94789 7869 ft 279 kts 105°
2026-05-04 17:26 13.60730 101.00674 9423 ft 289 kts 105°
2026-05-04 17:27 13.59675 101.04706 10469 ft 296 kts 104°
2026-05-04 17:27 13.58576 101.08973 10957 ft 321 kts 102°
2026-05-04 17:28 13.58351 101.13711 11428 ft 343 kts 88°
2026-05-04 17:29 13.58054 101.21149 12621 ft 354 kts 107°
2026-05-04 17:29 13.55093 101.28165 13823 ft 362 kts 115°
2026-05-04 17:30 13.51770 101.35228 15024 ft 369 kts 115°
2026-05-04 17:31 13.49444 101.39977 15795 ft 375 kts 117°
2026-05-04 17:31 13.45829 101.47175 16936 ft 381 kts 117°
2026-05-04 17:32 13.43391 101.52045 17642 ft 386 kts 117°
2026-05-04 17:33 13.39684 101.59461 18678 ft 392 kts 116°
2026-05-04 17:33 13.38454 101.61971 19014 ft 395 kts 116°
2026-05-04 17:34 13.34788 101.69618 19988 ft 401 kts 116°
2026-05-04 17:34 13.33571 101.72155 20285 ft 403 kts 116°
2026-05-04 17:35 13.29813 101.79947 21137 ft 409 kts 116°
2026-05-04 17:35 13.27270 101.85205 21702 ft 413 kts 116°
2026-05-04 17:35 13.25992 101.87847 21967 ft 415 kts 116°
2026-05-04 17:36 13.24703 101.90510 22208 ft 417 kts 116°
2026-05-04 17:36 13.23413 101.93176 22488 ft 418 kts 116°
2026-05-04 17:36 13.22117 101.95860 22747 ft 420 kts 116°
2026-05-04 17:36 13.20817 101.98551 23003 ft 422 kts 116°
2026-05-04 17:37 13.19509 102.01252 23240 ft 424 kts 116°
2026-05-04 17:37 13.18192 102.03967 23489 ft 425 kts 116°
2026-05-04 17:37 13.16873 102.06687 23719 ft 427 kts 116°
2026-05-04 17:37 13.15548 102.09422 23967 ft 428 kts 116°
2026-05-04 17:38 13.14219 102.12162 24204 ft 430 kts 116°
2026-05-04 17:38 13.12886 102.14910 24440 ft 431 kts 116°
2026-05-04 17:38 13.11545 102.17676 24636 ft 433 kts 116°
2026-05-04 17:38 13.10657 102.19510 24781 ft 434 kts 116°
2026-05-04 17:39 13.07496 102.26019 25267 ft 438 kts 116°
2026-05-04 17:39 13.06595 102.27875 25411 ft 439 kts 116°
2026-05-04 17:39 13.05229 102.30684 25630 ft 440 kts 116°
2026-05-04 17:40 13.03872 102.33505 25840 ft 442 kts 115°
2026-05-04 17:40 13.02823 102.36466 26026 ft 444 kts 104°
2026-05-04 17:40 13.02283 102.39583 26242 ft 445 kts 96°
2026-05-04 17:40 13.01968 102.42752 26463 ft 447 kts 95°
2026-05-04 17:41 13.01644 102.45919 26668 ft 448 kts 99°
2026-05-04 17:41 13.00954 102.49043 26890 ft 450 kts 106°
2026-05-04 17:41 12.99904 102.52063 27087 ft 451 kts 114°
2026-05-04 17:41 12.98588 102.54983 27302 ft 453 kts 116°
2026-05-04 17:42 12.97146 102.57856 27523 ft 454 kts 118°
2026-05-04 17:42 12.95628 102.60705 27748 ft 455 kts 119°
2026-05-04 17:42 12.94077 102.63538 27960 ft 457 kts 120°
2026-05-04 17:42 12.92508 102.66382 28170 ft 459 kts 120°
2026-05-04 17:43 12.90940 102.69235 28388 ft 460 kts 120°
2026-05-04 17:43 12.89390 102.72065 28601 ft 462 kts 119°
2026-05-04 17:43 12.87803 102.74976 28822 ft 463 kts 119°
2026-05-04 17:43 12.86250 102.77830 29036 ft 465 kts 119°
2026-05-04 17:44 12.84672 102.80734 29240 ft 466 kts 119°
2026-05-04 17:44 12.83095 102.83641 29441 ft 468 kts 119°
2026-05-04 17:44 12.81510 102.86563 29656 ft 470 kts 119°
2026-05-04 17:44 12.79921 102.89492 29877 ft 471 kts 119°
2026-05-04 17:45 12.78325 102.92433 30112 ft 472 kts 119°
2026-05-04 17:45 12.76724 102.95381 30334 ft 474 kts 120°
2026-05-04 17:45 12.75117 102.98335 30567 ft 476 kts 119°
2026-05-04 17:45 12.73514 103.01284 31016 ft 471 kts 119°
2026-05-04 17:46 12.71930 103.04197 31586 ft 465 kts 120°
2026-05-04 17:46 12.70367 103.07070 32148 ft 458 kts 119°
2026-05-04 17:46 12.68826 103.09902 32706 ft 452 kts 119°
2026-05-04 17:46 12.67307 103.12688 33280 ft 444 kts 120°
2026-05-04 17:47 12.65810 103.15429 33845 ft 438 kts 119°
2026-05-04 17:47 12.64329 103.18147 34217 ft 437 kts 119°
2026-05-04 17:47 12.62842 103.20880 34334 ft 442 kts 119°
2026-05-04 17:47 12.61337 103.23645 34438 ft 447 kts 119°
2026-05-04 17:48 12.59838 103.26396 34552 ft 451 kts 119°
2026-05-04 17:48 12.58279 103.29256 34682 ft 456 kts 119°
2026-05-04 17:48 12.56750 103.32058 34805 ft 460 kts 119°
2026-05-04 17:48 12.55182 103.34932 34931 ft 464 kts 119°
2026-05-04 17:49 12.53595 103.37843 35046 ft 469 kts 119°
2026-05-04 17:49 12.51999 103.40764 35166 ft 473 kts 120°
2026-05-04 17:49 12.50387 103.43712 35289 ft 477 kts 120°
2026-05-04 17:49 12.48758 103.46689 35401 ft 481 kts 120°
2026-05-04 17:50 12.47114 103.49688 35520 ft 485 kts 120°
2026-05-04 17:50 12.45458 103.52715 35637 ft 489 kts 120°
2026-05-04 17:50 12.43793 103.55760 35739 ft 493 kts 119°
2026-05-04 17:50 12.42115 103.58832 35835 ft 496 kts 120°
2026-05-04 17:51 12.40425 103.61919 36010 ft 498 kts 120°
2026-05-04 17:51 12.38734 103.65008 36241 ft 498 kts 120°
2026-05-04 17:51 12.37038 103.68106 36476 ft 499 kts 120°
2026-05-04 17:51 12.35339 103.71208 36751 ft 498 kts 120°
2026-05-04 17:52 12.33647 103.74295 37084 ft 496 kts 120°
2026-05-04 17:52 12.31969 103.77356 37484 ft 492 kts 120°
2026-05-04 17:52 12.30302 103.80399 37809 ft 490 kts 120°
2026-05-04 17:52 12.28632 103.83446 38075 ft 490 kts 120°
2026-05-04 17:53 12.26967 103.86478 38314 ft 490 kts 120°
2026-05-04 17:53 12.25297 103.89518 38551 ft 490 kts 120°
2026-05-04 17:53 12.23632 103.92550 38790 ft 490 kts 120°
2026-05-04 17:53 12.21985 103.95550 38994 ft 490 kts 120°
2026-05-04 17:54 12.20317 103.98584 39200 ft 490 kts 120°
2026-05-04 17:54 12.18647 104.01619 39384 ft 490 kts 120°
2026-05-04 17:54 12.16974 104.04659 39581 ft 490 kts 120°
2026-05-04 17:54 12.15301 104.07696 39764 ft 490 kts 120°
2026-05-04 17:55 12.13631 104.10733 39960 ft 490 kts 120°
2026-05-04 17:55 12.11963 104.13765 40164 ft 489 kts 120°
2026-05-04 17:55 12.10296 104.16794 40335 ft 489 kts 120°
2026-05-04 17:55 12.08629 104.19820 40485 ft 489 kts 120°
2026-05-04 17:56 12.06958 104.22852 40642 ft 489 kts 120°
2026-05-04 17:56 12.05288 104.25882 40805 ft 489 kts 120°
2026-05-04 17:56 12.01938 104.31955 40915 ft 493 kts 120°
2026-05-04 17:57 11.98556 104.38084 40915 ft 495 kts 120°
2026-05-04 17:57 11.95173 104.44211 40915 ft 495 kts 120°
2026-05-04 17:58 11.91788 104.50337 40916 ft 495 kts 120°
2026-05-04 17:58 11.88406 104.56455 40916 ft 495 kts 120°
2026-05-04 17:59 11.85025 104.62567 40916 ft 495 kts 120°
2026-05-04 18:00 11.79973 104.71691 40915 ft 494 kts 120°
2026-05-04 18:00 11.76589 104.77797 40916 ft 494 kts 120°
2026-05-04 18:01 11.73201 104.83908 40915 ft 494 kts 120°
2026-05-04 18:01 11.69818 104.90006 40916 ft 494 kts 120°
2026-05-04 18:02 11.64735 104.99161 40882 ft 494 kts 120°
2026-05-04 18:02 11.63045 105.02203 40645 ft 492 kts 120°
2026-05-04 18:02 11.61361 105.05233 40398 ft 490 kts 120°
2026-05-04 18:03 11.59680 105.08258 40150 ft 490 kts 120°
2026-05-04 18:03 11.58000 105.11279 39902 ft 490 kts 120°
2026-05-04 18:03 11.56320 105.14298 39657 ft 490 kts 120°
2026-05-04 18:03 11.54638 105.17320 39406 ft 490 kts 120°
2026-05-04 18:04 11.52957 105.20338 39161 ft 490 kts 120°
2026-05-04 18:04 11.51271 105.23366 38903 ft 490 kts 120°
2026-05-04 18:04 11.47907 105.29406 38425 ft 490 kts 120°
2026-05-04 18:05 11.46227 105.32421 38002 ft 487 kts 120°
2026-05-04 18:05 11.44557 105.35419 37397 ft 486 kts 120°
2026-05-04 18:05 11.42888 105.38414 36732 ft 486 kts 120°
2026-05-04 18:05 11.41240 105.41368 36070 ft 486 kts 120°
2026-05-04 18:06 11.37898 105.47357 34694 ft 485 kts 120°
2026-05-04 18:06 11.36238 105.50332 34182 ft 481 kts 120°
2026-05-04 18:06 11.34589 105.53288 33659 ft 478 kts 120°
2026-05-04 18:07 11.32949 105.56223 33140 ft 474 kts 120°
2026-05-04 18:07 11.31323 105.59129 32612 ft 470 kts 120°
2026-05-04 18:07 11.29709 105.62012 32120 ft 466 kts 120°
2026-05-04 18:07 11.28108 105.64872 31600 ft 462 kts 120°
2026-05-04 18:08 11.26523 105.67702 31102 ft 458 kts 120°
2026-05-04 18:08 11.24950 105.70515 30589 ft 455 kts 120°
2026-05-04 18:08 11.23393 105.73300 30097 ft 451 kts 120°
2026-05-04 18:08 11.21847 105.76063 29610 ft 447 kts 120°
2026-05-04 18:09 11.18798 105.81512 28645 ft 439 kts 120°
2026-05-04 18:09 11.15792 105.86881 27672 ft 433 kts 120°
2026-05-04 18:10 11.14327 105.89497 27190 ft 429 kts 120°
2026-05-04 18:10 11.12855 105.92124 26712 ft 425 kts 120°
2026-05-04 18:10 11.11429 105.94756 26226 ft 422 kts 116°
2026-05-04 18:10 11.10254 105.97489 25734 ft 419 kts 112°
2026-05-04 18:11 11.09151 106.00220 25248 ft 415 kts 112°
2026-05-04 18:11 11.08073 106.02930 24782 ft 412 kts 112°
2026-05-04 18:11 11.07007 106.05626 24286 ft 409 kts 112°
2026-05-04 18:11 11.05953 106.08298 23816 ft 405 kts 112°
2026-05-04 18:12 11.04905 106.10960 23336 ft 403 kts 112°
2026-05-04 18:12 11.03866 106.13590 22858 ft 399 kts 112°
2026-05-04 18:12 11.02823 106.16204 22375 ft 397 kts 113°
2026-05-04 18:12 11.01455 106.18622 21901 ft 393 kts 128°
2026-05-04 18:13 10.99572 106.20622 21415 ft 391 kts 137°
2026-05-04 18:13 10.97592 106.22446 20957 ft 388 kts 138°
2026-05-04 18:13 10.93586 106.26073 20010 ft 382 kts 138°
2026-05-04 18:14 10.91614 106.27872 19555 ft 380 kts 138°
2026-05-04 18:14 10.89656 106.29662 19086 ft 377 kts 137°
2026-05-04 18:14 10.87709 106.31443 18627 ft 375 kts 137°
2026-05-04 18:15 10.83857 106.34973 17705 ft 370 kts 137°
2026-05-04 18:15 10.80057 106.38453 16794 ft 364 kts 137°
2026-05-04 18:15 10.78184 106.40171 16340 ft 362 kts 137°
2026-05-04 18:16 10.76321 106.41880 15883 ft 360 kts 137°
2026-05-04 18:16 10.74466 106.43577 15435 ft 357 kts 137°
2026-05-04 18:16 10.72627 106.45260 15002 ft 355 kts 137°
2026-05-04 18:17 10.68975 106.48606 14057 ft 351 kts 137°
2026-05-04 18:17 10.67172 106.50262 13693 ft 347 kts 137°
2026-05-04 18:17 10.63553 106.53573 13127 ft 349 kts 137°
2026-05-04 18:18 10.61753 106.55217 12841 ft 348 kts 137°
2026-05-04 18:18 10.59977 106.56837 12556 ft 346 kts 137°
2026-05-04 18:18 10.58350 106.58627 12266 ft 344 kts 124°
2026-05-04 18:18 10.57244 106.60772 11976 ft 342 kts 113°
2026-05-04 18:19 10.55475 106.65246 11405 ft 339 kts 111°
2026-05-04 18:19 10.54605 106.67471 11136 ft 338 kts 111°
2026-05-04 18:19 10.53746 106.69651 10946 ft 326 kts 111°
2026-05-04 18:20 10.52908 106.71777 10401 ft 325 kts 111°
2026-05-04 18:20 10.52060 106.73911 9774 ft 326 kts 111°
2026-05-04 18:20 10.51219 106.76016 9478 ft 316 kts 111°
2026-05-04 18:20 10.50419 106.78019 9258 ft 304 kts 111°
2026-05-04 18:21 10.49624 106.80014 8908 ft 298 kts 111°
2026-05-04 18:21 10.48849 106.81955 8548 ft 293 kts 111°
2026-05-04 18:21 10.48133 106.83824 8352 ft 282 kts 106°
2026-05-04 18:21 10.47955 106.85748 8102 ft 270 kts 83°
2026-05-04 18:22 10.48325 106.87604 7766 ft 266 kts 76°
2026-05-04 18:22 10.48791 106.89416 7434 ft 263 kts 75°
2026-05-04 18:22 10.49247 106.91191 7234 ft 255 kts 75°
2026-05-04 18:22 10.49693 106.92930 7230 ft 255 kts 75°
2026-05-04 18:23 10.50135 106.94675 7227 ft 255 kts 76°
2026-05-04 18:23 10.50574 106.96423 7232 ft 255 kts 76°
2026-05-04 18:23 10.51092 106.98145 7225 ft 255 kts 70°
2026-05-04 18:23 10.51727 106.99824 7231 ft 255 kts 69°
2026-05-04 18:24 10.52387 107.01498 7231 ft 255 kts 68°
2026-05-04 18:24 10.53045 107.03171 7233 ft 255 kts 68°
2026-05-04 18:24 10.53699 107.04844 7228 ft 254 kts 69°
2026-05-04 18:24 10.54352 107.06515 7229 ft 254 kts 68°
2026-05-04 18:25 10.55008 107.08187 7227 ft 255 kts 69°
2026-05-04 18:25 10.55448 107.09296 7228 ft 255 kts 67°
2026-05-04 18:25 10.56366 107.10833 7228 ft 255 kts 51°
2026-05-04 18:25 10.57950 107.12634 7228 ft 256 kts 48°
2026-05-04 18:26 10.59162 107.13960 7230 ft 256 kts 48°
2026-05-04 18:26 10.59962 107.14839 7231 ft 256 kts 48°
2026-05-04 18:26 10.61173 107.16164 7230 ft 256 kts 48°
2026-05-04 18:26 10.62775 107.17923 7232 ft 256 kts 48°
2026-05-04 18:27 10.63981 107.19251 7230 ft 256 kts 47°
2026-05-04 18:27 10.65323 107.20439 7227 ft 257 kts 34°
2026-05-04 18:27 10.66361 107.21064 7231 ft 257 kts 30°
2026-05-04 18:27 10.67940 107.21918 7230 ft 257 kts 29°
2026-05-04 18:28 10.69534 107.22757 7231 ft 258 kts 28°
2026-05-04 18:28 10.71107 107.23586 7211 ft 258 kts 28°
2026-05-04 18:28 10.72694 107.24430 7014 ft 257 kts 29°
2026-05-04 18:28 10.74277 107.25273 6759 ft 256 kts 28°
2026-05-04 18:29 10.75979 107.25885 6509 ft 257 kts 14°
2026-05-04 18:29 10.77709 107.26233 6264 ft 256 kts 11°
2026-05-04 18:29 10.79464 107.26533 6014 ft 256 kts 11°
2026-05-04 18:29 10.81216 107.26825 5763 ft 254 kts 11°
2026-05-04 18:30 10.84708 107.26917 5292 ft 255 kts 341°
2026-05-04 18:30 10.86166 107.25900 5156 ft 259 kts 311°
2026-05-04 18:30 10.86929 107.24258 5040 ft 260 kts 283°
2026-05-04 18:31 10.87165 107.22437 4920 ft 260 kts 275°
2026-05-04 18:31 10.87299 107.20601 4792 ft 260 kts 274°
2026-05-04 18:31 10.87435 107.18767 4667 ft 260 kts 275°
2026-05-04 18:31 10.87588 107.16937 4549 ft 259 kts 275°
2026-05-04 18:32 10.87741 107.15121 4417 ft 258 kts 275°
2026-05-04 18:32 10.87863 107.13709 4320 ft 258 kts 275°
2026-05-04 18:32 10.88024 107.11894 4195 ft 258 kts 275°
2026-05-04 18:32 10.88187 107.10074 4074 ft 258 kts 275°
2026-05-04 18:33 10.88348 107.08261 4002 ft 257 kts 275°
2026-05-04 18:33 10.88514 107.06446 4002 ft 257 kts 275°
2026-05-04 18:33 10.88681 107.04631 4002 ft 257 kts 275°
2026-05-04 18:33 10.88844 107.02818 4003 ft 257 kts 275°
2026-05-04 18:34 10.89007 107.01007 4001 ft 258 kts 275°
2026-05-04 18:34 10.89167 106.99216 4011 ft 257 kts 276°
2026-05-04 18:34 10.89333 106.97404 4000 ft 258 kts 275°
2026-05-04 18:34 10.89499 106.95589 4003 ft 257 kts 275°
2026-05-04 18:35 10.89664 106.93781 3998 ft 257 kts 276°
2026-05-04 18:35 10.89829 106.91971 4001 ft 257 kts 275°
2026-05-04 18:35 10.89991 106.90165 4010 ft 257 kts 275°
2026-05-04 18:35 10.90117 106.88349 3997 ft 257 kts 270°
2026-05-04 18:36 10.89809 106.86562 3999 ft 257 kts 251°
2026-05-04 18:36 10.89149 106.84873 3870 ft 257 kts 245°
2026-05-04 18:36 10.88459 106.83209 3532 ft 255 kts 248°
2026-05-04 18:36 10.87837 106.81522 3128 ft 252 kts 249°
2026-05-04 18:37 10.87235 106.79893 2722 ft 240 kts 249°
2026-05-04 18:37 10.86653 106.78351 2375 ft 226 kts 248°
2026-05-04 18:37 10.86108 106.76908 2091 ft 211 kts 248°
2026-05-04 18:37 10.85607 106.75566 1831 ft 196 kts 248°
2026-05-04 18:38 10.85139 106.74318 1559 ft 181 kts 248°
2026-05-04 18:38 10.84705 106.73165 1324 ft 168 kts 248°
2026-05-04 18:38 10.84300 106.72086 1100 ft 158 kts 248°
2026-05-04 18:38 10.83920 106.71077 907 ft 149 kts 247°
2026-05-04 18:39 10.83566 106.70108 660 ft 144 kts 248°
2026-05-04 18:39 10.83202 106.69171 484 ft 142 kts 246°
2026-05-04 18:39 10.82852 106.68227 331 ft 143 kts 248°
2026-05-04 18:39 10.82498 106.67286 145 ft 140 kts 247°
2026-05-04 18:40 10.82144 106.66353 42 ft 142 kts 247°
2026-05-04 18:40 10.81854 106.65590 46 ft 81 kts 248°
2026-05-04 18:40 10.81694 106.65186 44 ft 54 kts 238°
2026-05-04 18:40 10.81496 106.65005 46 ft 22 kts 198°
2026-05-04 18:41 10.81391 106.65067 46 ft 19 kts 109°
2026-05-04 18:41 10.81419 106.65199 43 ft 20 kts 69°
2026-05-04 18:41 10.81470 106.65341 45 ft 22 kts 70°
2026-05-04 18:41 10.81528 106.65495 45 ft 24 kts 69°
2026-05-04 18:42 10.81591 106.65663 44 ft 26 kts 69°
2026-05-04 18:42 10.81661 106.65841 45 ft 28 kts 68°
2026-05-04 18:42 10.81731 106.66031 46 ft 29 kts 70°
2026-05-04 18:42 10.81798 106.66208 45 ft 11 kts 69°
2026-05-04 18:43 10.81827 106.66285 46 ft 13 kts 69°
2026-05-04 18:43 10.81851 106.66351 43 ft 0 kts 69°
2026-05-04 18:43 10.81857 106.66364 44 ft 6 kts 68°
2026-05-04 18:44 10.81844 106.66401 46 ft 6 kts 136°
2026-05-04 18:44 10.81817 106.66419 41 ft 8 kts 153°
2026-05-04 18:44 10.81805 106.66424 45 ft 0 kts 157°
2026-05-04 18:44 10.81796 106.66428 43 ft 1 kts 158°